Skip Page Navigation
NASA JPL Caltech
NASA Logo - Jet Propulsion Laboratory + View the NASA Portal
+ Near-Earth Object (NEO) Program
Search JPL
JPL Home Earth Solar System Stars & Galaxies Technology
JPL Solar System Dynamics
BODIES ORBITS EPHEMERIDES TOOLS PHYSICAL DATA DISCOVERY FAQ SITE MAP
JPL Small-Body Database Browser
Search: [ help ]  
5260 Philveron (1989 RH)
Classification: Main-belt Asteroid          SPK-ID: 2005260
Ephemeris | Orbit Diagram | Orbital Elements | Physical Parameters | Discovery Circumstances ]

[ show orbit diagram ]
Orbital Elements at Epoch 2457000.5 (2014-Dec-09.0) TDB
Reference: JPL 10 (heliocentric ecliptic J2000)
 Element Value Uncertainty (1-sigma)   Units 
e .1054506322712244 5.3892e-08  
a 2.601815508294077 1.9795e-08 AU
q 2.32745241789139 1.3886e-07 AU
i 13.7072857499336 7.3294e-06 deg
node 175.6604892431305 2.2089e-05 deg
peri 304.9806011199748 4.2978e-05 deg
M 245.6584069758769 4.0066e-05 deg
tp 2457487.372126326977
(2016-Apr-08.87212633)
0.0001734 JED
period 1532.897704518891
4.20
1.7494e-05
4.79e-08
d
yr
n .2348493307405585 2.6802e-09 deg/d
Q 2.876178598696765 2.1883e-08 AU
  Orbit Determination Parameters
   # obs. used (total)      1146  
   data-arc span      23507 days (64.36 yr)  
   first obs. used      1950-06-18  
   last obs. used      2014-10-27  
   planetary ephem.      DE431  
   SB-pert. ephem.      SB431-BIG16  
   condition code      0  
   fit RMS      .48699  
   data source      ORB  
   producer      Otto Matic  
   solution date      2014-Nov-10 12:58:31  

Additional Information
 Earth MOID = 1.36906 AU 
 T_jup = 3.366 
[ show covariance matrix ]

Ephemeris | Orbit Diagram | Orbital Elements | Physical Parameters | Discovery Circumstances ]

Physical Parameter Table
Parameter Symbol Value Units Sigma Reference Notes
absolute magnitude H 12.8 mag n/a MPO267728  

5260 Philveron (1989 RH)          Discovered 1989-Sep-02 by Elst, E. W. at Haute Provence
Reference: DISCOVERY.DBLast Updated: 2003-08-29

Alternate Designations
 1989 RH = 1983 EE4 
Ephemeris | Orbit Diagram | Orbital Elements | Physical Parameters | Discovery Circumstances ]
ABOUT SSD CREDITS/AWARDS PRIVACY/COPYRIGHT GLOSSARY LINKS
FirstGov 2014-Nov-28 11:02 UT
(server date/time)  
NASA Home Page
Site Manager:   Donald K. Yeomans
Webmaster  Alan B. Chamberlin